Location: Haram ta Haram Freeway
(35.0583°N, 51.4202°E)
Time: 00:42:37
(UTC+04:30)

ISS - Pass Details

Date: 12 July 2022
Orbit: 412 x 420 km, 51.6° (Epoch: 17 August)

Event Time Altitude Azimuth Distance (km) Brightness Sun altitude
Rises 05:05:18 0° 319° (NW) 2,362 0.0 -10.2°
Reaches altitude 10° 05:07:30 10° 327° (NNW) 1,498 -0.9 -9.9°
Maximum altitude 05:10:40 38° 38° (NE) 655 -2.1 -9.3°
Drops below altitude 10° 05:13:50 10° 108° (ESE) 1,495 -0.4 -8.8°
Sets 05:16:01 0° 116° (ESE) 2,357 0.5 -8.4°
